Flag Weather past 2 weeks in Wittenberg, Saxony-Anhalt, Germany

Now
34 °F

Scattered clouds.


Feels Like: 27 °F
Forecast: 29 / 38 °F
Wind: 8 mph from East

Location: Holzdorf

Current Time: Nov 27, 2014 at 9:26:17 AM

Latest Report: Nov 27, 2014 at 8:20 AM


Visibility: N/A

Pressure: 30.01 "Hg

Humidity: 81%

Dew point: 28 °F

Location of WittenbergLocation

Historic Weather in Wittenberg — Graph

°F

Wittenberg temperature yesterday

Maximum temperature yesterday: 43 °F (at 12:20 PM)
Minimum temperature yesterday: 32 °F (at 1:46 AM)
Average temperature yesterday: 37 °F

Past Weeks' High & Low Weather Summary

 TemperatureHumidityPressure
High57 °F (Nov 12, 11:20 AM)100% (Nov 12, 8:20 AM)30.36 "Hg (Nov 12, 8:20 AM)
Low27 °F (Nov 25, 3:20 AM)66% (Nov 22, 12:20 PM)29.53 "Hg (Nov 16, 7:20 AM)
Average43 °F91%30.04 "Hg
* Reported Nov 12 8:20 AM — Nov 27 8:20 AM, Wittenberg, Weather by CustomWeather, © 2014

Note: Actual official high and low records may vary slightly from our data, if they occured in-between our weather recording intervals... More about our weather records

Advertising

Wittenberg weather history for previous 24 hours

 ConditionsComfort  
Time TempWeatherWind HumidityBarometerVisibility
8:20 AM
Nov 27
34 °FScattered clouds.8 mph81%30.01 "HgN/A
7:20 AM34 °FPassing clouds.9 mph81%30.01 "Hg6 mi
6:20 AM32 °FPassing clouds.9 mph87%30.01 "Hg5 mi
5:20 AM34 °FPassing clouds.9 mph81%30.01 "Hg6 mi
4:20 AM34 °FPassing clouds.10 mph87%30.04 "Hg6 mi
3:20 AM34 °FPassing clouds.12 mph87%30.04 "HgN/A
2:20 AM34 °FPassing clouds.8 mph87%30.04 "HgN/A
1:20 AM34 °FPassing clouds.8 mph87%30.07 "HgN/A
12:20 AM32 °FPassing clouds.8 mph93%30.09 "HgN/A
11:55 PM
Nov 26
32 °FPassing clouds.7 mph93%30.09 "HgN/A
11:20 PM32 °FPassing clouds.8 mph93%30.09 "HgN/A
10:20 PM34 °FPassing clouds.8 mph87%30.09 "HgN/A
9:20 PM34 °FPassing clouds.6 mph87%30.12 "HgN/A
8:20 PM34 °FPassing clouds.6 mph87%30.12 "HgN/A
7:20 PM36 °FPassing clouds.8 mph87%30.12 "HgN/A
6:20 PM37 °FPassing clouds.10 mph81%30.15 "HgN/A
5:20 PM39 °FPassing clouds.9 mph81%30.15 "HgN/A
4:20 PM41 °FPassing clouds.13 mph76%30.15 "HgN/A
3:20 PM43 °FPartly sunny.8 mph87%30.15 "HgN/A
2:20 PM41 °FBroken clouds.8 mph87%30.15 "HgN/A
1:20 PM41 °FPartly sunny.12 mph87%30.18 "HgN/A
12:20 PM43 °FPartly sunny.10 mph81%30.18 "HgN/A
11:20 AM41 °FBroken clouds.12 mph93%30.21 "HgN/A
10:20 AM41 °FPartly sunny.10 mph93%30.24 "Hg4 mi
9:20 AM37 °FFog.13 mph100%30.24 "Hg2 mi
9:01 AM37 °FFog.12 mph100%30.24 "Hg1 mi
Weather by CustomWeather, © 2014

See weather overviewHow to use our weather pages